Time,TemperatureF,DewpointF,PressureIn,WindDirection,WindDirectionDegrees,WindSpeedMPH,WindSpeedGustMPH,Humidity,HourlyPrecipIn,Conditions,Clouds,dailyrainin,SoftwareType,DateUTC
2013-09-22 00:01:00,63.6,60.0,29.77,SSE,157,5.8,16.0,90,0.00,,,0.00,Rainwise IP-100,2013-09-22 04:01:00,
2013-09-22 00:06:00,63.5,60.0,29.77,SE,135,3.7,15.0,90,0.00,,,0.00,Rainwise IP-100,2013-09-22 04:06:00,
2013-09-22 00:11:00,63.3,60.0,29.77,SSE,157,11.2,16.0,90,0.00,,,0.00,Rainwise IP-100,2013-09-22 04:11:00,
2013-09-22 00:16:00,63.2,60.0,29.77,South,180,14.7,19.0,90,0.00,,,0.00,Rainwise IP-100,2013-09-22 04:16:00,
2013-09-22 00:21:00,63.2,60.0,29.76,SSE,157,6.8,15.0,91,0.00,,,0.00,Rainwise IP-100,2013-09-22 04:21:00,
2013-09-22 00:26:00,63.2,60.0,29.77,SE,135,8.9,17.0,91,0.00,,,0.00,Rainwise IP-100,2013-09-22 04:26:00,
2013-09-22 00:31:00,63.3,60.0,29.76,SE,135,6.3,17.0,90,0.00,,,0.00,Rainwise IP-100,2013-09-22 04:31:00,
2013-09-22 00:37:00,63.3,60.0,29.76,ESE,112,2.6,14.0,90,0.00,,,0.00,Rainwise IP-100,2013-09-22 04:37:00,
2013-09-22 00:42:00,63.5,60.0,29.76,South,180,10.7,18.0,90,0.00,,,0.00,Rainwise IP-100,2013-09-22 04:42:00,
2013-09-22 00:47:00,63.8,60.0,29.75,SSE,157,10.5,21.0,89,0.00,,,0.00,Rainwise IP-100,2013-09-22 04:47:00,
2013-09-22 00:52:00,63.8,60.0,29.75,South,180,11.9,18.0,89,0.00,,,0.00,Rainwise IP-100,2013-09-22 04:52:00,
2013-09-22 00:57:00,63.7,60.0,29.75,SSE,157,15.6,19.0,89,0.00,,,0.00,Rainwise IP-100,2013-09-22 04:57:00,
2013-09-22 01:02:00,63.7,60.0,29.75,ESE,112,10.7,20.0,89,0.00,,,0.00,Rainwise IP-100,2013-09-22 05:02:00,
2013-09-22 01:07:00,63.8,60.0,29.74,SSE,157,11.2,21.0,88,0.00,,,0.00,Rainwise IP-100,2013-09-22 05:07:00,
2013-09-22 01:12:00,63.9,60.0,29.75,SE,135,12.6,21.0,88,0.00,,,0.00,Rainwise IP-100,2013-09-22 05:12:00,
2013-09-22 01:18:00,63.9,60.0,29.75,SSE,157,15.9,17.0,88,0.00,,,0.00,Rainwise IP-100,2013-09-22 05:18:00,
2013-09-22 01:23:00,63.8,60.0,29.74,SE,135,15.9,18.0,89,0.00,,,0.00,Rainwise IP-100,2013-09-22 05:23:00,
2013-09-22 01:27:00,63.7,60.0,29.74,South,180,7.2,18.0,89,0.00,,,0.00,Rainwise IP-100,2013-09-22 05:27:00,
2013-09-22 01:32:00,63.6,60.0,29.74,SSE,157,7.7,21.0,89,0.00,,,0.00,Rainwise IP-100,2013-09-22 05:32:00,
2013-09-22 01:37:00,63.5,60.0,29.73,SE,135,6.8,19.0,90,0.00,,,0.00,Rainwise IP-100,2013-09-22 05:37:00,
2013-09-22 01:42:00,63.3,60.0,29.73,SSE,157,7.5,15.0,90,0.00,,,0.00,Rainwise IP-100,2013-09-22 05:42:00,
2013-09-22 01:47:00,63.2,60.0,29.73,SSE,157,11.0,20.0,90,0.00,,,0.00,Rainwise IP-100,2013-09-22 05:47:00,
2013-09-22 01:52:00,63.2,60.0,29.73,SE,135,16.1,20.0,91,0.00,,,0.00,Rainwise IP-100,2013-09-22 05:52:00,
2013-09-22 01:58:00,63.2,60.0,29.73,SE,135,13.3,22.0,91,0.00,,,0.00,Rainwise IP-100,2013-09-22 05:58:00,
2013-09-22 02:03:00,63.1,60.0,29.72,SE,135,11.7,16.0,92,0.00,,,0.00,Rainwise IP-100,2013-09-22 06:03:00,
2013-09-22 02:08:00,63.1,60.0,29.72,SSE,157,13.3,19.0,92,0.00,,,0.00,Rainwise IP-100,2013-09-22 06:08:00,
2013-09-22 02:13:00,63.0,60.0,29.72,SSE,157,5.1,15.0,92,0.00,,,0.00,Rainwise IP-100,2013-09-22 06:13:00,
2013-09-22 02:18:00,62.8,60.0,29.71,SE,135,5.8,17.0,93,0.00,,,0.00,Rainwise IP-100,2013-09-22 06:18:00,
2013-09-22 02:23:00,62.7,60.0,29.71,SE,135,11.4,15.0,93,0.00,,,0.00,Rainwise IP-100,2013-09-22 06:23:00,
2013-09-22 02:28:00,62.9,61.0,29.71,SSE,157,9.8,18.0,93,0.00,,,0.00,Rainwise IP-100,2013-09-22 06:28:00,
2013-09-22 02:33:00,63.1,61.0,29.71,SE,135,11.7,19.0,94,0.00,,,0.00,Rainwise IP-100,2013-09-22 06:33:00,
2013-09-22 02:39:00,63.3,61.0,29.70,SSE,157,10.5,25.0,94,0.00,,,0.00,Rainwise IP-100,2013-09-22 06:39:00,
2013-09-22 02:44:00,63.5,61.0,29.70,SSE,157,11.7,19.0,94,0.00,,,0.00,Rainwise IP-100,2013-09-22 06:44:00,
2013-09-22 02:49:00,63.7,61.0,29.70,SSE,157,16.3,21.0,94,0.00,,,0.00,Rainwise IP-100,2013-09-22 06:49:00,
2013-09-22 02:54:00,63.8,61.0,29.70,SSE,157,14.2,18.0,94,0.00,,,0.00,Rainwise IP-100,2013-09-22 06:54:00,
2013-09-22 02:59:00,63.9,62.0,29.69,South,180,18.7,24.0,94,0.00,,,0.00,Rainwise IP-100,2013-09-22 06:59:00,
2013-09-22 03:04:00,64.2,62.0,29.69,SE,135,11.7,21.0,94,0.00,,,0.00,Rainwise IP-100,2013-09-22 07:04:00,
2013-09-22 03:09:00,64.3,62.0,29.69,SSE,157,4.9,21.0,94,0.00,,,0.00,Rainwise IP-100,2013-09-22 07:09:00,
2013-09-22 03:15:00,64.2,62.0,29.67,SE,135,12.1,22.0,94,0.00,,,0.00,Rainwise IP-100,2013-09-22 07:15:00,
2013-09-22 03:20:00,64.1,62.0,29.69,SE,135,13.8,21.0,94,0.00,,,0.00,Rainwise IP-100,2013-09-22 07:20:00,
2013-09-22 03:25:00,64.0,62.0,29.69,SSE,157,7.5,22.0,94,0.00,,,0.00,Rainwise IP-100,2013-09-22 07:25:00,
2013-09-22 03:30:00,64.1,62.0,29.68,SSE,157,11.2,21.0,95,0.00,,,0.00,Rainwise IP-100,2013-09-22 07:30:00,
2013-09-22 03:35:00,64.1,62.0,29.68,South,180,10.3,21.0,95,0.00,,,0.00,Rainwise IP-100,2013-09-22 07:35:00,
2013-09-22 03:40:00,64.1,62.0,29.67,SE,135,10.5,24.0,95,0.00,,,0.00,Rainwise IP-100,2013-09-22 07:40:00,
2013-09-22 03:45:00,64.0,62.0,29.68,SSE,157,9.1,22.0,95,0.00,,,0.00,Rainwise IP-100,2013-09-22 07:45:00,
2013-09-22 03:50:00,64.0,62.0,29.67,SSE,157,14.2,20.0,95,0.00,,,0.00,Rainwise IP-100,2013-09-22 07:50:00,
2013-09-22 03:56:00,64.2,62.0,29.67,SE,135,7.7,26.0,95,0.00,,,0.00,Rainwise IP-100,2013-09-22 07:56:00,
2013-09-22 04:01:00,64.2,62.0,29.66,SSE,157,9.8,19.0,95,0.00,,,0.00,Rainwise IP-100,2013-09-22 08:01:00,
2013-09-22 04:06:00,64.0,62.0,29.67,SE,135,10.7,21.0,95,0.00,,,0.00,Rainwise IP-100,2013-09-22 08:06:00,
2013-09-22 04:11:00,63.9,62.0,29.67,SSE,157,11.7,27.0,95,0.00,,,0.00,Rainwise IP-100,2013-09-22 08:11:00,
2013-09-22 04:16:00,63.7,62.0,29.67,SSE,157,10.5,19.0,95,0.00,,,0.00,Rainwise IP-100,2013-09-22 08:16:00,
2013-09-22 04:21:00,63.6,62.0,29.66,SSE,157,8.2,21.0,96,0.00,,,0.00,Rainwise IP-100,2013-09-22 08:21:00,
2013-09-22 04:26:00,63.8,62.0,29.66,SSE,157,10.7,18.0,96,0.00,,,0.00,Rainwise IP-100,2013-09-22 08:26:00,
2013-09-22 04:32:00,63.9,63.0,29.66,SSE,157,15.9,20.0,96,0.00,,,0.00,Rainwise IP-100,2013-09-22 08:32:00,
2013-09-22 04:37:00,63.9,63.0,29.66,SSE,157,12.4,23.0,96,0.00,,,0.00,Rainwise IP-100,2013-09-22 08:37:00,
2013-09-22 04:42:00,63.7,62.0,29.66,SSE,157,7.5,21.0,96,0.00,,,0.00,Rainwise IP-100,2013-09-22 08:42:00,
2013-09-22 04:47:00,63.6,62.0,29.65,SSE,157,11.4,22.0,96,0.00,,,0.00,Rainwise IP-100,2013-09-22 08:47:00,
2013-09-22 04:52:00,63.6,62.0,29.65,SE,135,25.9,25.9,96,0.00,,,0.00,Rainwise IP-100,2013-09-22 08:52:00,
2013-09-22 04:57:00,63.7,62.0,29.66,SSE,157,16.1,25.0,96,0.00,,,0.00,Rainwise IP-100,2013-09-22 08:57:00,
2013-09-22 05:02:00,64.0,63.0,29.65,SE,135,12.4,24.0,96,0.00,,,0.00,Rainwise IP-100,2013-09-22 09:02:00,
2013-09-22 05:07:00,64.1,63.0,29.65,SSE,157,16.3,21.0,96,0.00,,,0.00,Rainwise IP-100,2013-09-22 09:07:00,
2013-09-22 05:13:00,64.0,63.0,29.65,South,180,12.8,24.0,96,0.30,,,0.06,Rainwise IP-100,2013-09-22 09:13:00,
2013-09-22 05:18:00,63.9,63.0,29.65,SSE,157,11.0,24.0,97,0.36,,,0.06,Rainwise IP-100,2013-09-22 09:18:00,
2013-09-22 05:23:00,64.0,63.0,29.64,SE,135,11.2,27.0,97,0.00,,,0.06,Rainwise IP-100,2013-09-22 09:23:00,
2013-09-22 05:28:00,63.8,62.0,29.64,SE,135,12.4,26.0,97,0.00,,,0.06,Rainwise IP-100,2013-09-22 09:28:00,
2013-09-22 05:33:00,63.5,62.0,29.64,SSE,157,7.0,22.0,97,0.00,,,0.06,Rainwise IP-100,2013-09-22 09:33:00,
2013-09-22 05:38:00,63.4,62.0,29.64,ESE,112,13.1,24.0,97,0.00,,,0.06,Rainwise IP-100,2013-09-22 09:38:00,
2013-09-22 05:43:00,63.6,62.0,29.64,SE,135,18.2,23.0,97,0.06,,,0.07,Rainwise IP-100,2013-09-22 09:43:00,
2013-09-22 05:49:00,63.6,62.0,29.64,SE,135,16.3,27.0,97,0.06,,,0.07,Rainwise IP-100,2013-09-22 09:49:00,
2013-09-22 05:54:00,63.5,62.0,29.64,SE,135,9.6,23.0,97,0.00,,,0.07,Rainwise IP-100,2013-09-22 09:54:00,
2013-09-22 05:59:00,63.4,62.0,29.64,SE,135,14.2,23.0,97,0.00,,,0.07,Rainwise IP-100,2013-09-22 09:59:00,
2013-09-22 06:04:00,63.5,62.0,29.65,SE,135,17.3,23.0,97,0.00,,,0.07,Rainwise IP-100,2013-09-22 10:04:00,
2013-09-22 06:09:00,63.7,62.0,29.64,SSE,157,17.7,23.0,97,0.00,,,0.07,Rainwise IP-100,2013-09-22 10:09:00,
2013-09-22 06:14:00,63.7,62.0,29.64,SE,135,4.4,21.0,96,0.00,,,0.07,Rainwise IP-100,2013-09-22 10:14:00,
2013-09-22 06:19:00,63.7,62.0,29.64,SSE,157,18.7,26.0,96,0.00,,,0.07,Rainwise IP-100,2013-09-22 10:19:00,
2013-09-22 06:24:00,64.0,63.0,29.64,South,180,5.1,23.0,96,0.00,,,0.07,Rainwise IP-100,2013-09-22 10:24:00,
2013-09-22 06:30:00,64.2,63.0,29.63,SSE,157,6.3,21.0,96,0.00,,,0.07,Rainwise IP-100,2013-09-22 10:30:00,
2013-09-22 06:35:00,64.2,63.0,29.63,SSE,157,15.2,18.0,96,0.00,,,0.07,Rainwise IP-100,2013-09-22 10:35:00,
2013-09-22 06:40:00,64.2,63.0,29.63,SE,135,14.9,22.0,96,0.00,,,0.07,Rainwise IP-100,2013-09-22 10:40:00,
2013-09-22 06:45:00,64.1,63.0,29.62,SSE,157,12.1,22.0,96,0.00,,,0.07,Rainwise IP-100,2013-09-22 10:45:00,
2013-09-22 06:50:00,64.0,63.0,29.63,South,180,6.1,24.0,96,0.00,,,0.07,Rainwise IP-100,2013-09-22 10:50:00,
2013-09-22 06:55:00,64.1,63.0,29.63,South,180,15.9,21.0,96,0.00,,,0.07,Rainwise IP-100,2013-09-22 10:55:00,
2013-09-22 07:00:00,64.5,63.0,29.63,SE,135,15.9,24.0,95,0.00,,,0.07,Rainwise IP-100,2013-09-22 11:00:00,
2013-09-22 07:06:00,64.7,63.0,29.63,South,180,9.3,24.0,95,0.00,,,0.07,Rainwise IP-100,2013-09-22 11:06:00,
2013-09-22 07:11:00,64.7,63.0,29.62,South,180,16.6,24.0,95,0.00,,,0.07,Rainwise IP-100,2013-09-22 11:11:00,
2013-09-22 07:16:00,64.8,63.0,29.62,SSE,157,14.7,22.0,95,0.00,,,0.07,Rainwise IP-100,2013-09-22 11:16:00,
2013-09-22 07:21:00,64.9,63.0,29.63,SSE,157,15.9,21.0,95,0.00,,,0.07,Rainwise IP-100,2013-09-22 11:21:00,
2013-09-22 07:26:00,65.0,63.0,29.62,SSE,157,10.3,26.0,94,0.00,,,0.07,Rainwise IP-100,2013-09-22 11:26:00,
2013-09-22 07:31:00,65.0,63.0,29.61,SSE,157,27.5,27.5,94,0.00,,,0.07,Rainwise IP-100,2013-09-22 11:31:00,
2013-09-22 07:36:00,65.0,63.0,29.61,SSE,157,23.6,28.0,94,0.00,,,0.07,Rainwise IP-100,2013-09-22 11:36:00,
2013-09-22 07:41:00,65.0,63.0,29.61,SE,135,14.9,23.0,94,0.00,,,0.07,Rainwise IP-100,2013-09-22 11:41:00,
2013-09-22 07:47:00,65.2,63.0,29.60,SSE,157,14.5,23.0,94,0.00,,,0.07,Rainwise IP-100,2013-09-22 11:47:00,
2013-09-22 07:52:00,65.3,63.0,29.61,SSE,157,15.9,26.0,93,0.00,,,0.07,Rainwise IP-100,2013-09-22 11:52:00,
2013-09-22 07:57:00,65.3,63.0,29.60,South,180,11.0,30.0,93,0.00,,,0.07,Rainwise IP-100,2013-09-22 11:57:00,
2013-09-22 08:02:00,65.4,63.0,29.60,ESE,112,11.2,24.0,93,0.00,,,0.07,Rainwise IP-100,2013-09-22 12:02:00,
2013-09-22 08:07:00,65.5,63.0,29.60,SSE,157,10.0,24.0,92,0.00,,,0.07,Rainwise IP-100,2013-09-22 12:07:00,
2013-09-22 08:12:00,65.5,63.0,29.60,SSE,157,17.7,27.0,92,0.00,,,0.07,Rainwise IP-100,2013-09-22 12:12:00,
2013-09-22 08:17:00,65.7,63.0,29.60,SSE,157,18.4,27.0,92,0.00,,,0.07,Rainwise IP-100,2013-09-22 12:17:00,
2013-09-22 08:23:00,65.6,63.0,29.60,SSE,157,13.3,26.0,92,0.00,,,0.07,Rainwise IP-100,2013-09-22 12:23:00,
2013-09-22 08:28:00,65.6,63.0,29.61,SSE,157,19.4,24.0,92,0.00,,,0.07,Rainwise IP-100,2013-09-22 12:28:00,
2013-09-22 08:33:00,65.6,63.0,29.60,SSE,157,18.7,27.0,92,0.00,,,0.07,Rainwise IP-100,2013-09-22 12:33:00,
2013-09-22 08:38:00,65.5,63.0,29.60,SE,135,24.5,29.0,92,0.00,,,0.07,Rainwise IP-100,2013-09-22 12:38:00,
2013-09-22 08:43:00,65.3,63.0,29.61,SE,135,11.4,28.0,93,0.00,,,0.07,Rainwise IP-100,2013-09-22 12:43:00,
2013-09-22 08:48:00,65.2,63.0,29.60,SSE,157,21.9,27.0,93,0.00,,,0.07,Rainwise IP-100,2013-09-22 12:48:00,
2013-09-22 08:53:00,65.2,63.0,29.60,SSE,157,18.0,29.0,94,0.00,,,0.07,Rainwise IP-100,2013-09-22 12:53:00,
2013-09-22 08:58:00,65.5,63.0,29.60,SSE,157,8.2,35.0,93,0.00,,,0.07,Rainwise IP-100,2013-09-22 12:58:00,
2013-09-22 09:04:00,66.0,64.0,29.60,SSE,157,11.4,34.0,93,0.00,,,0.07,Rainwise IP-100,2013-09-22 13:04:00,
2013-09-22 09:09:00,66.5,64.0,29.61,South,180,5.8,24.0,92,0.00,,,0.07,Rainwise IP-100,2013-09-22 13:09:00,
2013-09-22 09:14:00,66.2,64.0,29.62,SSW,202,12.4,21.0,92,0.00,,,0.07,Rainwise IP-100,2013-09-22 13:14:00,
2013-09-22 09:19:00,65.2,63.0,29.62,SSE,157,8.4,23.0,93,0.24,,,0.11,Rainwise IP-100,2013-09-22 13:19:00,
2013-09-22 09:24:00,64.3,62.0,29.62,SSW,202,17.5,19.0,94,0.36,,,0.13,Rainwise IP-100,2013-09-22 13:24:00,
2013-09-22 09:29:00,64.0,62.0,29.63,South,180,5.1,21.0,95,0.30,,,0.17,Rainwise IP-100,2013-09-22 13:29:00,
2013-09-22 09:34:00,64.1,63.0,29.62,South,180,8.9,23.0,96,0.42,,,0.20,Rainwise IP-100,2013-09-22 13:34:00,
2013-09-22 09:40:00,64.3,63.0,29.62,South,180,16.8,23.0,96,0.30,,,0.21,Rainwise IP-100,2013-09-22 13:40:00,
2013-09-22 09:45:00,64.4,63.0,29.61,South,180,7.9,21.0,97,0.06,,,0.21,Rainwise IP-100,2013-09-22 13:45:00,
2013-09-22 09:50:00,64.5,63.0,29.61,SSE,157,17.5,20.0,97,0.00,,,0.21,Rainwise IP-100,2013-09-22 13:50:00,
2013-09-22 09:55:00,64.6,63.0,29.61,South,180,10.3,20.0,97,0.00,,,0.21,Rainwise IP-100,2013-09-22 13:55:00,
2013-09-22 10:00:00,64.7,63.0,29.61,SSW,202,17.0,24.0,97,0.00,,,0.21,Rainwise IP-100,2013-09-22 14:00:00,
2013-09-22 10:05:00,64.7,64.0,29.61,SSW,202,8.9,21.0,98,0.00,,,0.21,Rainwise IP-100,2013-09-22 14:05:00,
2013-09-22 10:10:00,64.6,64.0,29.61,South,180,13.5,18.0,98,0.06,,,0.22,Rainwise IP-100,2013-09-22 14:10:00,
2013-09-22 10:15:00,64.6,64.0,29.62,South,180,5.6,21.0,98,0.06,,,0.22,Rainwise IP-100,2013-09-22 14:15:00,
2013-09-22 10:21:00,64.5,64.0,29.61,South,180,4.4,14.0,98,0.00,,,0.22,Rainwise IP-100,2013-09-22 14:21:00,
2013-09-22 10:26:00,64.5,64.0,29.61,SW,225,9.6,15.0,98,0.00,,,0.22,Rainwise IP-100,2013-09-22 14:26:00,
2013-09-22 10:31:00,64.5,64.0,29.61,SSW,202,4.0,14.0,98,0.00,,,0.22,Rainwise IP-100,2013-09-22 14:31:00,
2013-09-22 10:36:00,64.5,64.0,29.61,SSW,202,13.1,13.1,98,0.00,,,0.22,Rainwise IP-100,2013-09-22 14:36:00,
2013-09-22 10:41:00,64.4,64.0,29.62,SSW,202,7.0,22.0,98,0.06,,,0.23,Rainwise IP-100,2013-09-22 14:41:00,
2013-09-22 10:46:00,64.4,64.0,29.61,SSW,202,7.2,14.0,98,0.06,,,0.23,Rainwise IP-100,2013-09-22 14:46:00,
2013-09-22 10:51:00,64.4,64.0,29.62,South,180,6.1,8.0,98,0.00,,,0.23,Rainwise IP-100,2013-09-22 14:51:00,
2013-09-22 10:57:00,64.4,64.0,29.62,South,180,3.7,11.0,98,0.06,,,0.24,Rainwise IP-100,2013-09-22 14:57:00,
2013-09-22 11:02:00,64.3,63.0,29.61,SSE,157,7.5,15.0,98,0.06,,,0.24,Rainwise IP-100,2013-09-22 15:02:00,
2013-09-22 11:07:00,64.3,63.0,29.61,SW,225,6.1,9.0,98,0.06,,,0.25,Rainwise IP-100,2013-09-22 15:07:00,
2013-09-22 11:12:00,64.3,63.0,29.61,SSE,157,8.4,11.0,98,0.06,,,0.25,Rainwise IP-100,2013-09-22 15:12:00,
2013-09-22 11:17:00,64.3,63.0,29.61,SE,135,4.9,11.0,99,0.00,,,0.25,Rainwise IP-100,2013-09-22 15:17:00,
2013-09-22 11:22:00,64.2,63.0,29.61,SSE,157,9.3,12.0,99,0.00,,,0.25,Rainwise IP-100,2013-09-22 15:22:00,
2013-09-22 11:27:00,64.0,63.0,29.61,SSE,157,6.3,14.0,98,0.00,,,0.25,Rainwise IP-100,2013-09-22 15:27:00,
2013-09-22 11:32:00,63.8,63.0,29.61,South,180,3.5,10.0,98,0.00,,,0.25,Rainwise IP-100,2013-09-22 15:32:00,
2013-09-22 11:38:00,63.8,63.0,29.61,SSE,157,6.8,13.0,98,0.00,,,0.25,Rainwise IP-100,2013-09-22 15:38:00,
2013-09-22 11:43:00,63.6,63.0,29.61,SSE,157,6.5,11.0,98,0.00,,,0.25,Rainwise IP-100,2013-09-22 15:43:00,
2013-09-22 11:48:00,63.2,62.0,29.61,SSE,157,3.5,11.0,98,0.00,,,0.25,Rainwise IP-100,2013-09-22 15:48:00,
2013-09-22 11:53:00,63.0,62.0,29.62,South,180,4.2,10.0,98,0.00,,,0.25,Rainwise IP-100,2013-09-22 15:53:00,
2013-09-22 11:55:00,63.1,62.0,29.62,SSE,157,8.9,10.0,98,0.00,,,0.25,Rainwise IP-100,2013-09-22 15:55:00,
2013-09-22 12:00:00,63.1,62.0,29.62,South,180,5.6,13.0,98,0.00,,,0.25,Rainwise IP-100,2013-09-22 16:00:00,
2013-09-22 12:05:00,63.3,62.0,29.62,SSW,202,3.5,11.0,98,0.00,,,0.25,Rainwise IP-100,2013-09-22 16:05:00,
2013-09-22 12:11:00,63.4,63.0,29.62,SSE,157,3.0,12.0,98,0.00,,,0.25,Rainwise IP-100,2013-09-22 16:11:00,
2013-09-22 12:16:00,63.5,63.0,29.61,SSW,202,6.8,13.0,98,0.00,,,0.25,Rainwise IP-100,2013-09-22 16:16:00,
2013-09-22 12:21:00,63.7,63.0,29.61,SSW,202,4.7,11.0,98,0.00,,,0.25,Rainwise IP-100,2013-09-22 16:21:00,
2013-09-22 12:26:00,63.7,63.0,29.61,South,180,8.4,10.0,98,0.00,,,0.25,Rainwise IP-100,2013-09-22 16:26:00,
2013-09-22 12:31:00,63.7,63.0,29.62,SSW,202,3.5,10.0,98,0.00,,,0.25,Rainwise IP-100,2013-09-22 16:31:00,
2013-09-22 12:36:00,63.9,63.0,29.61,SSE,157,2.8,6.0,98,0.00,,,0.25,Rainwise IP-100,2013-09-22 16:36:00,
2013-09-22 12:41:00,63.8,63.0,29.61,South,180,1.2,7.0,98,0.00,,,0.25,Rainwise IP-100,2013-09-22 16:41:00,
2013-09-22 12:47:00,63.5,63.0,29.61,South,180,5.1,7.0,98,0.00,,,0.25,Rainwise IP-100,2013-09-22 16:47:00,
2013-09-22 12:52:00,63.2,62.0,29.61,SSW,202,0.0,8.0,98,0.00,,,0.25,Rainwise IP-100,2013-09-22 16:52:00,
2013-09-22 12:57:00,63.3,62.0,29.61,South,180,4.9,7.0,98,0.00,,,0.25,Rainwise IP-100,2013-09-22 16:57:00,
2013-09-22 13:02:00,63.5,63.0,29.61,SSE,157,3.5,8.0,98,0.00,,,0.25,Rainwise IP-100,2013-09-22 17:02:00,
2013-09-22 13:07:00,63.6,63.0,29.61,SSW,202,5.4,7.0,98,0.00,,,0.25,Rainwise IP-100,2013-09-22 17:07:00,
2013-09-22 13:12:00,63.7,63.0,29.61,SSE,157,4.9,7.0,98,0.00,,,0.25,Rainwise IP-100,2013-09-22 17:12:00,
2013-09-22 13:17:00,63.7,63.0,29.61,WSW,247,5.6,9.0,98,0.00,,,0.25,Rainwise IP-100,2013-09-22 17:17:00,
2013-09-22 13:22:00,63.4,63.0,29.61,SSW,202,7.2,12.0,98,0.00,,,0.25,Rainwise IP-100,2013-09-22 17:22:00,
2013-09-22 13:28:00,63.3,62.0,29.61,SSE,157,3.5,12.0,98,0.00,,,0.25,Rainwise IP-100,2013-09-22 17:28:00,
2013-09-22 13:33:00,63.2,62.0,29.60,SSW,202,4.4,11.0,98,0.00,,,0.25,Rainwise IP-100,2013-09-22 17:33:00,
2013-09-22 13:38:00,63.0,62.0,29.60,WSW,247,8.9,14.0,98,0.00,,,0.25,Rainwise IP-100,2013-09-22 17:38:00,
2013-09-22 13:43:00,62.8,62.0,29.60,SSW,202,9.8,9.8,98,0.00,,,0.25,Rainwise IP-100,2013-09-22 17:43:00,
2013-09-22 13:48:00,62.7,62.0,29.60,SSW,202,3.3,10.0,98,0.00,,,0.25,Rainwise IP-100,2013-09-22 17:48:00,
2013-09-22 13:53:00,62.7,62.0,29.60,SW,225,1.6,8.0,98,0.00,,,0.25,Rainwise IP-100,2013-09-22 17:53:00,
2013-09-22 13:58:00,62.8,62.0,29.59,SSW,202,4.7,10.0,98,0.00,,,0.25,Rainwise IP-100,2013-09-22 17:58:00,
2013-09-22 14:04:00,63.0,62.0,29.59,SW,225,5.1,10.0,98,0.00,,,0.25,Rainwise IP-100,2013-09-22 18:04:00,
2013-09-22 14:09:00,63.2,62.0,29.59,SSW,202,2.6,10.0,98,0.00,,,0.25,Rainwise IP-100,2013-09-22 18:09:00,
2013-09-22 14:14:00,63.4,63.0,29.59,SW,225,8.9,11.0,98,0.00,,,0.25,Rainwise IP-100,2013-09-22 18:14:00,
2013-09-22 14:19:00,63.7,62.0,29.59,South,180,2.3,11.0,97,0.00,,,0.25,Rainwise IP-100,2013-09-22 18:19:00,
2013-09-22 14:24:00,64.1,63.0,29.59,WSW,247,3.0,8.0,97,0.00,,,0.25,Rainwise IP-100,2013-09-22 18:24:00,
2013-09-22 14:29:00,64.4,63.0,29.58,South,180,7.7,9.0,96,0.00,,,0.25,Rainwise IP-100,2013-09-22 18:29:00,
2013-09-22 14:34:00,64.7,63.0,29.59,South,180,9.1,12.0,95,0.00,,,0.25,Rainwise IP-100,2013-09-22 18:34:00,
2013-09-22 14:39:00,65.0,63.0,29.58,SW,225,4.7,11.0,94,0.00,,,0.25,Rainwise IP-100,2013-09-22 18:39:00,
2013-09-22 14:45:00,65.5,63.0,29.59,SSW,202,5.1,8.0,94,0.00,,,0.25,Rainwise IP-100,2013-09-22 18:45:00,
2013-09-22 14:50:00,65.9,64.0,29.58,SW,225,8.6,9.0,93,0.00,,,0.25,Rainwise IP-100,2013-09-22 18:50:00,
2013-09-22 14:55:00,65.6,63.0,29.58,SSW,202,4.9,10.0,92,0.00,,,0.25,Rainwise IP-100,2013-09-22 18:55:00,
2013-09-22 15:00:00,65.5,63.0,29.58,South,180,3.7,11.0,92,0.00,,,0.25,Rainwise IP-100,2013-09-22 19:00:00,
2013-09-22 15:05:00,65.9,63.0,29.58,SSW,202,3.5,11.0,91,0.00,,,0.25,Rainwise IP-100,2013-09-22 19:05:00,
2013-09-22 15:10:00,66.0,63.0,29.58,SSW,202,4.4,13.0,90,0.00,,,0.25,Rainwise IP-100,2013-09-22 19:10:00,
2013-09-22 15:15:00,65.8,61.0,29.58,SSE,157,8.2,13.0,88,0.00,,,0.25,Rainwise IP-100,2013-09-22 19:15:00,
2013-09-22 15:21:00,65.9,62.0,29.58,South,180,4.7,10.0,88,0.00,,,0.25,Rainwise IP-100,2013-09-22 19:21:00,
2013-09-22 15:26:00,66.1,62.0,29.57,South,180,10.0,12.0,88,0.00,,,0.25,Rainwise IP-100,2013-09-22 19:26:00,
2013-09-22 15:31:00,66.0,62.0,29.58,South,180,6.3,11.0,88,0.00,,,0.25,Rainwise IP-100,2013-09-22 19:31:00,
2013-09-22 15:36:00,66.1,62.0,29.58,SSW,202,5.4,12.0,89,0.00,,,0.25,Rainwise IP-100,2013-09-22 19:36:00,
2013-09-22 15:41:00,66.1,62.0,29.58,South,180,10.3,12.0,89,0.00,,,0.25,Rainwise IP-100,2013-09-22 19:41:00,
2013-09-22 15:46:00,66.2,62.0,29.58,SSE,157,4.9,11.0,88,0.00,,,0.25,Rainwise IP-100,2013-09-22 19:46:00,
2013-09-22 15:51:00,66.5,63.0,29.58,SSW,202,4.2,13.0,88,0.00,,,0.25,Rainwise IP-100,2013-09-22 19:51:00,
2013-09-22 15:56:00,66.6,63.0,29.58,SSE,157,8.4,9.0,88,0.00,,,0.25,Rainwise IP-100,2013-09-22 19:56:00,
2013-09-22 16:02:00,66.4,62.0,29.58,South,180,6.8,14.0,87,0.00,,,0.25,Rainwise IP-100,2013-09-22 20:02:00,
2013-09-22 16:07:00,66.1,62.0,29.58,SSE,157,2.6,14.0,87,0.00,,,0.25,Rainwise IP-100,2013-09-22 20:07:00,
2013-09-22 16:12:00,66.1,62.0,29.58,SSW,202,11.9,12.0,87,0.00,,,0.25,Rainwise IP-100,2013-09-22 20:12:00,
2013-09-22 16:17:00,66.0,62.0,29.58,SSW,202,8.2,14.0,87,0.00,,,0.25,Rainwise IP-100,2013-09-22 20:17:00,
2013-09-22 16:22:00,65.7,61.0,29.59,SSW,202,4.9,17.0,87,0.00,,,0.25,Rainwise IP-100,2013-09-22 20:22:00,
2013-09-22 16:27:00,65.2,61.0,29.57,SW,225,10.7,14.0,87,0.00,,,0.25,Rainwise IP-100,2013-09-22 20:27:00,
2013-09-22 16:32:00,64.8,61.0,29.59,SSW,202,5.8,17.0,88,0.00,,,0.25,Rainwise IP-100,2013-09-22 20:32:00,
2013-09-22 16:38:00,64.6,61.0,29.59,South,180,6.8,14.0,88,0.00,,,0.25,Rainwise IP-100,2013-09-22 20:38:00,
2013-09-22 16:43:00,64.6,61.0,29.59,South,180,9.8,13.0,89,0.00,,,0.25,Rainwise IP-100,2013-09-22 20:43:00,
2013-09-22 16:48:00,64.6,61.0,29.58,SW,225,7.9,12.0,89,0.00,,,0.25,Rainwise IP-100,2013-09-22 20:48:00,
2013-09-22 16:53:00,64.4,61.0,29.59,SSW,202,4.9,11.0,89,0.00,,,0.25,Rainwise IP-100,2013-09-22 20:53:00,
2013-09-22 16:58:00,64.3,60.0,29.59,SSW,202,7.5,12.0,89,0.00,,,0.25,Rainwise IP-100,2013-09-22 20:58:00,
2013-09-22 17:03:00,64.3,60.0,29.59,South,180,6.5,11.0,89,0.00,,,0.25,Rainwise IP-100,2013-09-22 21:03:00,
2013-09-22 17:08:00,64.3,60.0,29.59,SSW,202,6.8,10.0,89,0.00,,,0.25,Rainwise IP-100,2013-09-22 21:08:00,
2013-09-22 17:13:00,64.1,60.0,29.59,South,180,5.1,11.0,89,0.00,,,0.25,Rainwise IP-100,2013-09-22 21:13:00,
2013-09-22 17:19:00,63.8,60.0,29.59,SSW,202,8.2,12.0,89,0.00,,,0.25,Rainwise IP-100,2013-09-22 21:19:00,
2013-09-22 17:24:00,63.6,60.0,29.59,South,180,4.7,11.0,90,0.00,,,0.25,Rainwise IP-100,2013-09-22 21:24:00,
2013-09-22 17:29:00,63.6,60.0,29.59,SSW,202,5.4,9.0,90,0.00,,,0.25,Rainwise IP-100,2013-09-22 21:29:00,
2013-09-22 17:34:00,63.5,60.0,29.60,South,180,6.5,12.0,90,0.00,,,0.25,Rainwise IP-100,2013-09-22 21:34:00,
2013-09-22 17:39:00,63.3,60.0,29.60,SSE,157,4.4,12.0,90,0.00,,,0.25,Rainwise IP-100,2013-09-22 21:39:00,
2013-09-22 17:44:00,62.9,60.0,29.59,South,180,6.1,10.0,90,0.00,,,0.25,Rainwise IP-100,2013-09-22 21:44:00,
2013-09-22 17:49:00,62.7,59.0,29.60,SSW,202,5.6,9.0,90,0.00,,,0.25,Rainwise IP-100,2013-09-22 21:49:00,
2013-09-22 17:55:00,62.4,60.0,29.60,SSW,202,4.2,12.0,91,0.00,,,0.25,Rainwise IP-100,2013-09-22 21:55:00,
2013-09-22 18:00:00,62.2,59.0,29.60,WSW,247,3.5,10.0,91,0.00,,,0.25,Rainwise IP-100,2013-09-22 22:00:00,
2013-09-22 18:05:00,62.0,60.0,29.60,SSW,202,7.2,8.0,92,0.00,,,0.25,Rainwise IP-100,2013-09-22 22:05:00,
2013-09-22 18:10:00,61.7,59.0,29.60,SSW,202,4.9,10.0,92,0.00,,,0.25,Rainwise IP-100,2013-09-22 22:10:00,
2013-09-22 18:15:00,61.3,59.0,29.60,SW,225,5.4,10.0,92,0.00,,,0.25,Rainwise IP-100,2013-09-22 22:15:00,
2013-09-22 18:20:00,61.0,59.0,29.60,SW,225,5.6,8.0,93,0.00,,,0.25,Rainwise IP-100,2013-09-22 22:20:00,
2013-09-22 18:25:00,60.7,58.0,29.60,South,180,2.1,9.0,93,0.00,,,0.25,Rainwise IP-100,2013-09-22 22:25:00,
2013-09-22 18:30:00,60.5,59.0,29.60,SSW,202,3.3,5.0,94,0.00,,,0.25,Rainwise IP-100,2013-09-22 22:30:00,
2013-09-22 18:36:00,60.3,58.0,29.61,SSE,157,2.3,6.0,94,0.00,,,0.25,Rainwise IP-100,2013-09-22 22:36:00,
2013-09-22 18:41:00,60.0,58.0,29.60,SSW,202,5.8,6.0,95,0.00,,,0.25,Rainwise IP-100,2013-09-22 22:41:00,
2013-09-22 18:46:00,59.9,58.0,29.61,SSW,202,2.8,5.0,95,0.00,,,0.25,Rainwise IP-100,2013-09-22 22:46:00,
2013-09-22 18:51:00,59.7,57.0,29.61,SSW,202,1.4,4.0,95,0.00,,,0.25,Rainwise IP-100,2013-09-22 22:51:00,
2013-09-22 18:56:00,59.5,57.0,29.61,SW,225,2.6,4.0,95,0.00,,,0.25,Rainwise IP-100,2013-09-22 22:56:00,
2013-09-22 19:01:00,59.4,58.0,29.61,SW,225,2.6,4.0,96,0.00,,,0.25,Rainwise IP-100,2013-09-22 23:01:00,
2013-09-22 19:06:00,59.3,57.0,29.61,SW,225,2.6,3.0,96,0.00,,,0.25,Rainwise IP-100,2013-09-22 23:06:00,
2013-09-22 19:12:00,59.3,57.0,29.61,WSW,247,4.7,4.7,96,0.00,,,0.25,Rainwise IP-100,2013-09-22 23:12:00,
2013-09-22 19:17:00,59.2,57.0,29.61,WSW,247,4.7,5.0,96,0.00,,,0.25,Rainwise IP-100,2013-09-22 23:17:00,
2013-09-22 19:22:00,59.2,58.0,29.62,NW,315,7.5,7.5,97,0.00,,,0.25,Rainwise IP-100,2013-09-22 23:22:00,
2013-09-22 19:27:00,59.4,58.0,29.62,NW,315,4.7,8.0,97,0.00,,,0.25,Rainwise IP-100,2013-09-22 23:27:00,
2013-09-22 19:32:00,59.7,58.0,29.63,WNW,292,4.7,6.0,97,0.00,,,0.25,Rainwise IP-100,2013-09-22 23:32:00,
2013-09-22 19:37:00,60.1,59.0,29.63,WNW,292,5.1,6.0,97,0.00,,,0.25,Rainwise IP-100,2013-09-22 23:37:00,
2013-09-22 19:42:00,60.5,59.0,29.63,WNW,292,8.9,8.9,97,0.00,,,0.25,Rainwise IP-100,2013-09-22 23:42:00,
2013-09-22 19:47:00,60.7,59.0,29.64,NW,315,5.8,9.0,96,0.00,,,0.25,Rainwise IP-100,2013-09-22 23:47:00,
2013-09-22 19:53:00,60.9,59.0,29.63,WNW,292,6.8,10.0,95,0.00,,,0.25,Rainwise IP-100,2013-09-22 23:53:00,
2013-09-22 19:58:00,61.1,59.0,29.63,WNW,292,8.2,16.0,92,0.00,,,0.25,Rainwise IP-100,2013-09-22 23:58:00,
2013-09-22 20:03:00,61.2,57.0,29.64,WNW,292,9.6,16.0,89,0.00,,,0.25,Rainwise IP-100,2013-09-23 00:03:00,
2013-09-22 20:08:00,61.1,56.0,29.64,West,270,12.6,17.0,86,0.00,,,0.25,Rainwise IP-100,2013-09-23 00:08:00,
2013-09-22 20:13:00,61.0,56.0,29.64,WNW,292,9.3,15.0,84,0.00,,,0.25,Rainwise IP-100,2013-09-23 00:13:00,
2013-09-22 20:18:00,60.6,55.0,29.64,WNW,292,6.3,16.0,83,0.00,,,0.25,Rainwise IP-100,2013-09-23 00:18:00,
2013-09-22 20:23:00,60.2,54.0,29.64,NW,315,10.3,13.0,82,0.00,,,0.25,Rainwise IP-100,2013-09-23 00:23:00,
2013-09-22 20:29:00,60.0,54.0,29.64,WNW,292,10.3,16.0,81,0.00,,,0.25,Rainwise IP-100,2013-09-23 00:29:00,
2013-09-22 20:34:00,59.9,54.0,29.65,WNW,292,7.5,18.0,80,0.00,,,0.25,Rainwise IP-100,2013-09-23 00:34:00,
2013-09-22 20:39:00,59.6,53.0,29.65,WNW,292,9.6,12.0,80,0.00,,,0.25,Rainwise IP-100,2013-09-23 00:39:00,
2013-09-22 20:44:00,59.4,53.0,29.65,WNW,292,11.7,13.0,80,0.00,,,0.25,Rainwise IP-100,2013-09-23 00:44:00,
2013-09-22 20:49:00,59.4,53.0,29.65,WNW,292,13.5,15.0,80,0.00,,,0.25,Rainwise IP-100,2013-09-23 00:49:00,
2013-09-22 20:54:00,59.3,53.0,29.65,WNW,292,9.8,14.0,80,0.00,,,0.25,Rainwise IP-100,2013-09-23 00:54:00,
2013-09-22 20:59:00,59.1,53.0,29.66,WNW,292,11.0,14.0,80,0.00,,,0.25,Rainwise IP-100,2013-09-23 00:59:00,
2013-09-22 21:04:00,59.0,53.0,29.66,WNW,292,10.5,14.0,80,0.00,,,0.25,Rainwise IP-100,2013-09-23 01:04:00,
2013-09-22 21:10:00,58.9,53.0,29.66,West,270,12.6,17.0,80,0.00,,,0.25,Rainwise IP-100,2013-09-23 01:10:00,
2013-09-22 21:15:00,58.7,53.0,29.67,WNW,292,8.9,17.0,80,0.00,,,0.25,Rainwise IP-100,2013-09-23 01:15:00,
2013-09-22 21:20:00,58.5,53.0,29.66,WNW,292,7.9,16.0,79,0.00,,,0.25,Rainwise IP-100,2013-09-23 01:20:00,
2013-09-22 21:25:00,58.3,52.0,29.67,WNW,292,11.2,20.0,79,0.00,,,0.25,Rainwise IP-100,2013-09-23 01:25:00,
2013-09-22 21:30:00,58.2,52.0,29.68,WNW,292,11.7,16.0,79,0.00,,,0.25,Rainwise IP-100,2013-09-23 01:30:00,
2013-09-22 21:35:00,58.0,51.0,29.67,West,270,7.9,16.0,78,0.00,,,0.25,Rainwise IP-100,2013-09-23 01:35:00,
2013-09-22 21:40:00,57.9,51.0,29.67,WNW,292,9.3,16.0,78,0.00,,,0.25,Rainwise IP-100,2013-09-23 01:40:00,
2013-09-22 21:46:00,57.8,50.0,29.68,WNW,292,10.0,16.0,78,0.00,,,0.25,Rainwise IP-100,2013-09-23 01:46:00,
2013-09-22 21:51:00,57.5,50.0,29.68,WNW,292,8.6,15.0,78,0.00,,,0.25,Rainwise IP-100,2013-09-23 01:51:00,
2013-09-22 21:56:00,57.4,50.0,29.68,NW,315,6.8,14.0,78,0.00,,,0.25,Rainwise IP-100,2013-09-23 01:56:00,
2013-09-22 22:01:00,57.2,50.0,29.68,NW,315,5.6,14.0,78,0.00,,,0.25,Rainwise IP-100,2013-09-23 02:01:00,
2013-09-22 22:06:00,57.0,50.0,29.69,WNW,292,6.3,12.0,78,0.00,,,0.25,Rainwise IP-100,2013-09-23 02:06:00,
2013-09-22 22:11:00,56.9,50.0,29.69,WNW,292,4.2,11.0,79,0.00,,,0.25,Rainwise IP-100,2013-09-23 02:11:00,
2013-09-22 22:16:00,56.8,50.0,29.69,West,270,5.4,11.0,79,0.00,,,0.25,Rainwise IP-100,2013-09-23 02:16:00,
2013-09-22 22:21:00,56.7,50.0,29.69,WNW,292,7.7,10.0,79,0.00,,,0.25,Rainwise IP-100,2013-09-23 02:21:00,
2013-09-22 22:27:00,56.6,50.0,29.69,West,270,4.9,8.0,79,0.00,,,0.25,Rainwise IP-100,2013-09-23 02:27:00,
2013-09-22 22:32:00,56.4,50.0,29.70,West,270,5.6,7.0,79,0.00,,,0.25,Rainwise IP-100,2013-09-23 02:32:00,
2013-09-22 22:37:00,56.2,50.0,29.70,WSW,247,8.9,10.0,79,0.00,,,0.25,Rainwise IP-100,2013-09-23 02:37:00,
2013-09-22 22:42:00,56.2,50.0,29.70,WNW,292,7.9,10.0,79,0.00,,,0.25,Rainwise IP-100,2013-09-23 02:42:00,
2013-09-22 22:47:00,56.1,50.0,29.70,West,270,6.3,13.0,79,0.00,,,0.25,Rainwise IP-100,2013-09-23 02:47:00,
2013-09-22 22:52:00,56.1,50.0,29.70,WNW,292,3.7,11.0,79,0.00,,,0.25,Rainwise IP-100,2013-09-23 02:52:00,
2013-09-22 22:57:00,55.9,50.0,29.70,West,270,6.5,11.0,79,0.00,,,0.25,Rainwise IP-100,2013-09-23 02:57:00,
2013-09-22 23:03:00,55.8,50.0,29.69,WSW,247,4.0,11.0,79,0.00,,,0.25,Rainwise IP-100,2013-09-23 03:03:00,
2013-09-22 23:08:00,55.6,50.0,29.70,WNW,292,7.0,11.0,79,0.00,,,0.25,Rainwise IP-100,2013-09-23 03:08:00,
2013-09-22 23:13:00,55.5,50.0,29.70,West,270,3.7,10.0,79,0.00,,,0.25,Rainwise IP-100,2013-09-23 03:13:00,
2013-09-22 23:18:00,55.4,49.0,29.69,West,270,5.8,12.0,79,0.00,,,0.25,Rainwise IP-100,2013-09-23 03:18:00,
2013-09-22 23:23:00,55.3,49.0,29.70,West,270,7.9,15.0,79,0.00,,,0.25,Rainwise IP-100,2013-09-23 03:23:00,
2013-09-22 23:28:00,55.1,49.0,29.70,WNW,292,8.9,15.0,79,0.00,,,0.25,Rainwise IP-100,2013-09-23 03:28:00,
2013-09-22 23:33:00,54.8,48.0,29.70,West,270,7.5,13.0,80,0.00,,,0.25,Rainwise IP-100,2013-09-23 03:33:00,
2013-09-22 23:38:00,54.6,48.0,29.69,WNW,292,7.2,13.0,80,0.00,,,0.25,Rainwise IP-100,2013-09-23 03:38:00,
2013-09-22 23:44:00,54.3,48.0,29.69,West,270,9.8,11.0,80,0.00,,,0.25,Rainwise IP-100,2013-09-23 03:44:00,
2013-09-22 23:49:00,54.2,48.0,29.69,WNW,292,7.0,12.0,80,0.00,,,0.25,Rainwise IP-100,2013-09-23 03:49:00,
2013-09-22 23:54:00,53.9,48.0,29.70,West,270,5.8,10.0,81,0.00,,,0.25,Rainwise IP-100,2013-09-23 03:54:00,
2013-09-22 23:59:00,53.6,47.0,29.70,West,270,6.3,11.0,81,0.00,,,0.25,Rainwise IP-100,2013-09-23 03:59:00,